Overview Statistics Trail Chart Weather Telemetry Raw packets
 

This is the latest recevied weather packets stored in our database for station/object CW79215. If no packets are shown the sender has not sent any weather packets the latest 10 day(s).

<< 9 10 11 12 13 14 15 >>
Time Temp. Humidity Pressure Rain* Wind** Luminosity Snow
1788465941 20° C 56% 1032.5 hPa - - - -
1788465041 20.56° C 55% 1032.4 hPa - - - -
1788464141 20.56° C 53% 1032.4 hPa - - - -
1788463241 21.11° C 52% 1032.2 hPa - - - -
1788462341 21.67° C 49% 1032 hPa - - - -
1788461441 22.22° C 48% 1032 hPa - - - -
1788460540 22.22° C 49% 1032 hPa - - - -
1788459640 22.78° C 47% 1031.7 hPa - - - -
1788458740 22.78° C 45% 1031.6 hPa - - - -
1788457857 23.33° C 43% 1031.3 hPa - - - -
1788456940 24.44° C 40% 1031.3 hPa - - - -
1788456040 24.44° C 38% 1031.2 hPa - - - -
1788455140 25° C 36% 1031.2 hPa - - - -
1788454240 25.56° C 35% 1031.1 hPa - - - -
1788453340 25.56° C 34% 1031.1 hPa - - - -
1788452440 26.11° C 33% 1031.1 hPa - - - -
1788451540 26.11° C 33% 1031.2 hPa - - - -
1788450638 26.11° C 32% 1031.2 hPa - - - -
1788449738 26.11° C 32% 1031.4 hPa - - - -
1788448838 26.11° C 33% 1031.5 hPa - - - -
1788447938 26.11° C 31% 1031.6 hPa - - - -
1788447038 26.67° C 30% 1031.6 hPa - - - -
1788446139 26.11° C 31% 1031.7 hPa - - - -
1788445239 26.67° C 31% 1031.7 hPa - - - -
1788444339 26.67° C 31% 1031.7 hPa - - - -

* Rain since midnight (hover to see other rain measurements)
** Current wind speed in m/s (hover to see current wind gust speed)